Duluth, MN

1:03 AM CST on January 17, 2018 (GMT -0600)
Duluth International

Weather History for KDLH - October, 2014

Change the Weather History Date:

Monday, October 20, 2014

  Actual Average Record
Temperature  
Mean Temperature 46 °F 42 °F  
Max Temperature 50 °F 50 °F 79 °F (1953)
Min Temperature 42 °F 34 °F 16 °F (1952)
Degree Days  
Heating Degree Days 19 23  
Month to date heating degree days 393 393  
Since 1 July heating degree days 697 840  
Cooling Degree Days 0 0  
Month to date cooling degree days 0 0  
Year to date cooling degree days 179 204  
Moisture  
Dew Point 39 °F    
Average Humidity 75    
Maximum Humidity 89    
Minimum Humidity 61    
Precipitation  
Precipitation 0.00 in 0.08 in 0.98 in (1934)
Month to date precipitation 1.60 1.99  
Year to date precipitation 28.19 26.80  
Snow  
Snow 0.00 in 0.10 in 3.40 in (1936)
Month to date snowfall T 0.9  
Since 1 July snowfall T 1.0  
Since 1 September snowfall T 1.0  
Snow Depth 0.00 in    
Sea Level Pressure  
Sea Level Pressure 29.99 in    
Wind  
Wind Speed 8 mph (NNW)    
Max Wind Speed 15 mph    
Max Gust Speed 20 mph    
Visibility 10 miles    
Events      
T = Trace of Precipitation, MM = Missing Value Source: NWS Daily Summary

Daily Weather History Graph

Daily Weather History Graph

Search for Another Location

Airport or City:

Trip Planner

Search our weather history database for the weather conditions in past years. The results will help you decide how hot, cold, wet, or windy it might be!

Date:

Astronomy

Oct. 20, 2014 Rise Set
Actual Time 7:33 AM CDT 6:12 PM CDT
Civil Twilight 7:02 AM CDT 6:43 PM CDT
Nautical Twilight 6:27 AM CDT 7:18 PM CDT
Astronomical Twilight 5:52 AM CDT 7:53 PM CDT
Moon 4:10 AM CDT (10/20) 4:45 PM CDT (10/20)
Length of Visible Light 11h 40m
Length of Day
10h 38m
Waning Crescent, 10% of the Moon is Illuminated
Oct 20
Waning Crescent
Oct 23
New
Oct 30
First Quarter
Nov 6
Full
Nov 14
Last Quarter

Hourly Weather History & Observations

Time (CDT) Temp. Windchill Dew Point Humidity Pressure Visibility Wind Dir Wind Speed Gust Speed Precip Events Conditions
12:55 AM 50.0 °F - 39.9 °F 68% 29.83 in 10.0 mi NW 11.5 mph - N/A   Partly Cloudy
1:55 AM 48.9 °F - 39.9 °F 71% 29.84 in 10.0 mi NW 11.5 mph - N/A   Scattered Clouds
2:55 AM 46.9 °F - 39.9 °F 77% 29.85 in 10.0 mi NW 12.7 mph - N/A   Clear
3:55 AM 46.0 °F 41.4 °F 39.9 °F 79% 29.87 in 10.0 mi NW 9.2 mph - N/A   Clear
4:55 AM 45.0 °F 40.6 °F 39.9 °F 82% 29.89 in 10.0 mi NW 8.1 mph - N/A   Clear
5:55 AM 45.0 °F 40.6 °F 39.9 °F 82% 29.91 in 10.0 mi NNW 8.1 mph - N/A   Clear
6:55 AM 43.0 °F 38.8 °F 39.0 °F 86% 29.93 in 10.0 mi WNW 6.9 mph - N/A   Scattered Clouds
7:55 AM 43.0 °F 39.5 °F 39.0 °F 86% 29.95 in 9.0 mi NW 5.8 mph - N/A   Scattered Clouds
8:55 AM 45.0 °F 41.2 °F 39.9 °F 82% 29.97 in 10.0 mi NNW 6.9 mph - N/A   Mostly Cloudy
9:55 AM 46.0 °F 43.1 °F 41.0 °F 83% 29.99 in 10.0 mi NW 5.8 mph - N/A   Overcast
10:20 AM 46.9 °F - 41.0 °F 80% 29.97 in 7.0 mi NW 8.1 mph - N/A   Overcast
10:55 AM 48.0 °F - 42.1 °F 80% 30.00 in 7.0 mi NNW 10.4 mph - N/A   Overcast
11:19 AM 46.9 °F - 41.0 °F 80% 29.98 in 10.0 mi NNW 10.4 mph - N/A   Overcast
11:55 AM 48.2 °F - 41.0 °F 76% 29.98 in 10.0 mi NW 8.1 mph - N/A   Overcast
12:34 PM 48.9 °F - 41.0 °F 74% 29.98 in 10.0 mi NW 10.4 mph - N/A   Overcast
12:55 PM 48.9 °F - 39.9 °F 71% 30.01 in 10.0 mi NNW 11.5 mph - N/A   Overcast
1:55 PM 50.0 °F - 39.0 °F 66% 30.01 in 10.0 mi North 9.2 mph - N/A   Overcast
2:55 PM 48.9 °F - 39.0 °F 69% 30.03 in 10.0 mi North 9.2 mph - N/A   Overcast
3:55 PM 48.0 °F - 39.0 °F 71% 30.03 in 10.0 mi North 10.4 mph - N/A   Overcast
4:55 PM 48.0 °F - 37.9 °F 68% 30.05 in 10.0 mi North 9.2 mph - N/A   Overcast
5:55 PM 48.0 °F - 36.0 °F 63% 30.08 in 10.0 mi North 8.1 mph - N/A   Overcast
6:55 PM 46.9 °F - 36.0 °F 66% 30.10 in 10.0 mi NNE 8.1 mph - N/A   Overcast
7:55 PM 46.9 °F - 36.0 °F 66% 30.11 in 10.0 mi North 3.5 mph - N/A   Overcast
8:55 PM 46.0 °F 43.9 °F 36.0 °F 68% 30.12 in 10.0 mi NNE 4.6 mph - N/A   Overcast
9:55 PM 46.0 °F 43.1 °F 35.1 °F 66% 30.13 in 10.0 mi NE 5.8 mph - N/A   Overcast
10:55 PM 46.0 °F 43.1 °F 35.1 °F 66% 30.14 in 10.0 mi NNE 5.8 mph - N/A   Overcast
11:55 PM 45.0 °F 40.1 °F 36.0 °F 71% 30.14 in 10.0 mi NE 9.2 mph - N/A   Overcast